Regional Weather Roundup
Issued by NWS

Home | Current Version | Previous Version | Graphics & Text | Print | Product List | Glossary On
Versions: 1 2 3 4 5 6 7 8 9 10 11 12 13 14 15 16 17 18 19 20 21 22 23 24 25 26 27 28 29 30 31 32 33 34 35 36 37 38 39 40 41 42 43 44 45 46 47 48 49 50
000
ASUS43 KDTX 180610
RWRMI
MICHIGAN HOURLY REGIONAL WEATHER ROUNDUP
NATIONAL WEATHER SERVICE DETROIT/PONTIAC MI
100 AM EST SAT NOV 18 2017

NOTE: "FAIR" INDICATES FEW OR NO CLOUDS BELOW 12,000 FEET WITH NO
SIGNIFICANT WEATHER AND/OR OBSTRUCTION TO VISIBILITY.

MIZ047>049-052>055-059>063-066>070-074>076-081>083-180700-
SOUTHEAST LOWER MICHIGAN

CITY           SKY/WX    TMP DP  RH WIND       PRES   REMARKS
ADRIAN         LGT RAIN  40  38  93 S10       29.67F FOG     WCI  33
6HR MIN TEMP:  40; 6HR MAX TEMP:  43; 6HR PCP:  0.38;

ALMA           LGT RAIN  40  40  99 S8G16     29.61F WCI  35
ANN ARBOR      HVY RAIN  40  39  97 SE12      29.66F FOG     WCI  33
BAD AXE        LGT SNOW  40  36  88 S14       29.63F WCI  32
6HR MIN TEMP:  38; 6HR MAX TEMP:  40;

CARO           MIX PCPN  40  38  93 SW12G17   29.64R WCI  33
DETROIT CITY   RAIN      54  38  54 S12       29.71F
6HR MIN TEMP:  41; 6HR MAX TEMP:  56; 6HR PCP:  0.10;

DETROIT        HVY RAIN  41  39  93 S13       29.70F FOG
6HR MIN TEMP:  41; 6HR MAX TEMP:  44; 6HR PCP:  0.26;

FLINT          HVY RAIN  40  37  89 S14G25    29.64F FOG     WCI  32
6HR MIN TEMP:  39; 6HR MAX TEMP:  43; 6HR PCP:  0.55;

GROSSE ILE     LGT SNOW  42  39  88 S12       29.71F
6HR MIN TEMP:  42; 6HR MAX TEMP:  44; 6HR PCP:  0.18;

HILLSDALE      RAIN      39  37  93 S12       29.62F WCI  32
HOWELL         MIX PCPN  40  39  97 S14G22    29.64F WCI  32
6HR MIN TEMP:  39; 6HR MAX TEMP:  42; 6HR PCP:  0.56;


CITY           SKY/WX    TMP DP  RH WIND       PRES   REMARKS
JACKSON        LGT RAIN  42  40  92 S10       29.62F FOG
6HR MIN TEMP:  40; 6HR MAX TEMP:  44; 6HR PCP:  0.76;

LAMBERTVILLE   MIX PCPN  42  39  87 S7        29.68F
6HR MIN TEMP:  42; 6HR MAX TEMP:  47;

LANSING        LGT RAIN  41  40  96 S12       29.63F
6HR MIN TEMP:  40; 6HR MAX TEMP:  43; 6HR PCP:  0.65;

LAPEER         RAIN      40  37  90 S14G22    29.64F WCI  32
6HR MIN TEMP:  39; 6HR MAX TEMP:  42; 6HR PCP:  0.24;

MASON          RAIN      41  39  91 S6        29.63F
MONROE         RAIN      42  38  87 S9        29.69F
MT. CLEMENS    CLOUDY    41  39  93 S13       29.67F
6HR MIN TEMP:  41; 6HR MAX TEMP:  43; 6HR PCP:  0.05;

PONTIAC        RAIN      39  38  96 S12       29.65F FOG     WCI  32
6HR MIN TEMP:  39; 6HR MAX TEMP:  42;

PORT HOPE        N/A     40  36  86 S7        29.63F
6HR MIN TEMP:  39; 6HR MAX TEMP:  41; 6HR PCP:  0.24;

PORT HURON     MIX PCPN  41  36  81 S10       29.70S
TRI CITIES     LGT RAIN  40  40 100 S8        29.62F FOG     WCI  34
6HR MIN TEMP:  39; 6HR MAX TEMP:  42; 6HR PCP:  0.44;

MIDLAND        LGT RAIN  40  39  97 CALM      29.61F
6HR MIN TEMP:  38; 6HR MAX TEMP:  40; 6HR PCP:  0.27;

TROY           MIX PCPN  43  39  86 S12G24    29.70F
SAGINAW HB     LGT RAIN  39  37  93 S13       29.63S WCI  32
$$
MIZ043>046-050>051-056>058-064>065-071>073-077>080-180700-
SOUTHWEST LOWER MICHIGAN

CITY           SKY/WX    TMP DP  RH WIND       PRES   REMARKS
BATTLE CREEK   LGT RAIN  41  40  96 SW9       29.61F FOG
6HR MIN TEMP:  40; 6HR MAX TEMP:  44; 6HR PCP:  0.64;

BENTON HARBOR  RAIN      44  41  89 SW5       29.59F FOG
6HR MIN TEMP:  42; 6HR MAX TEMP:  44; 6HR PCP:  0.53;

BIG RAPIDS     LGT SNOW  38  37  94 CALM      29.56F
6HR MIN TEMP:  37; 6HR MAX TEMP:  38; 6HR PCP:  0.35;

COLDWATER      DRIZZLE   42  42 100 S8G16     29.61F
6HR MIN TEMP:  40; 6HR MAX TEMP:  44;

FREMONT        DRIZZLE   40  40 100 S6        29.57F
HOLLAND        LGT RAIN  43  41  93 S7        29.61F FOG
6HR MIN TEMP:  42; 6HR MAX TEMP:  43; 6HR PCP:  0.49;

GRAND RAPIDS   LGT RAIN  42  42 100 S7        29.60F FOG
6HR MIN TEMP:  41; 6HR MAX TEMP:  42; 6HR PCP:  0.57;

IONIA          DRIZZLE   41  40  97 S9        29.61F
6HR MIN TEMP:  40; 6HR MAX TEMP:  42; 6HR PCP:  0.32;

KALAMAZOO      LGT RAIN  42  39  89 S12       29.61F FOG
6HR MIN TEMP:  41; 6HR MAX TEMP:  45; 6HR PCP:  0.63;

LUDINGTON      CLOUDY    44  42  95 W9G21     29.55F
6HR MIN TEMP:  39; 6HR MAX TEMP:  44; 6HR PCP:  0.38;

MARSHALL       DRIZZLE   40  40  98 S7        29.60F
6HR MIN TEMP:  40; 6HR MAX TEMP:  44; 6HR PCP:  0.65;

MOUNT PLEASANT RAIN      40  38  95 SE5       29.59F
6HR MIN TEMP:  38; 6HR MAX TEMP:  40; 6HR PCP:  0.43;

MUSKEGON       LGT RAIN  46  43  89 SW15      29.58F
6HR MIN TEMP:  41; 6HR MAX TEMP:  46; 6HR PCP:  0.36;

SOUTH HAVEN    DRIZZLE   44  42  93 SW7       29.61R
$$
MIZ016>042-180700-
NORTHERN LOWER MICHIGAN

CITY           SKY/WX    TMP DP  RH WIND       PRES   REMARKS
ALPENA         LGT RAIN  36  36 100 SE6       29.63F FOG     WCI  31
6HR MIN TEMP:  36; 6HR MAX TEMP:  37; 6HR PCP:  0.56;

BEAVER ISLAND  LGT RAIN  38  38  97 CALM      29.56F
6HR MIN TEMP:  38; 6HR MAX TEMP:  39;

BELLAIRE       LGT SNOW  36  36 100 SE3       29.57F
6HR MIN TEMP:  36; 6HR MAX TEMP:  38;

CADILLAC       HVY RAIN  37  36  98 S5        29.54F WCI  33
CHARLEVOIX     LGT RAIN  36  36 100 SE8       29.58F WCI  30
6HR MIN TEMP:  36; 6HR MAX TEMP:  37;

FRANKFORT      DRIZZLE   40  40 100 CALM      29.56S
GAYLORD        RAIN      33  32  96 SE6       29.55F FOG     WCI  28
6HR MIN TEMP:  33; 6HR MAX TEMP:  35; 6HR PCP:  0.27;

GRAYLING       RAIN      35  34  95 CALM      29.59F
HARBOR SPRINGS LGT SNOW  33  33  99 E6        29.57F WCI  28
HOUGHTON LAKE  RAIN      36  35  96 SE3       29.59F FOG
6HR MIN TEMP:  35; 6HR MAX TEMP:  37; 6HR PCP:  0.67;

MANISTEE       LGT RAIN  39  38  96 VRB3      29.55F FOG
OSCODA         MIX PCPN  38  37  96 S8        29.64F WCI  32
6HR MIN TEMP:  37; 6HR MAX TEMP:  39; 6HR PCP:  0.34;

PELLSTON       LGT SNOW  34  34 100 SE8       29.58F FOG     WCI  27
6HR MIN TEMP:  34; 6HR MAX TEMP:  36; 6HR PCP:  0.30;

ROGERS CITY    LGT SNOW  34  33  96 SE5       29.63F WCI  30
TRAVERSE CITY  LGT RAIN  38  36  92 SE3       29.55F
6HR MIN TEMP:  37; 6HR MAX TEMP:  40; 6HR PCP:  0.45;

$$
MIZ007>008-015-180700-
EASTERN UPPER MICHIGAN

CITY           SKY/WX    TMP DP  RH WIND       PRES   REMARKS
KINROSS        MIX PCPN  34  33  96 SE12      29.59F FOG     WCI  25
6HR MIN TEMP:  33; 6HR MAX TEMP:  34;

MACKINAC ISLAN LGT SNOW  36  36  99 SE8       29.58F WCI  29
6HR MIN TEMP:  35; 6HR MAX TEMP:  37; 6HR PCP:  0.21;

NEWBERRY       CLOUDY    32  31  97 E5        29.57F FOG     WCI  27
6HR MIN TEMP:  32; 6HR MAX TEMP:  32; 6HR PCP:  0.11;

S. S. MARIE    LGT SNOW  34  32  92 SE5       29.60F VSB 1   WCI  30
6HR MIN TEMP:  34; 6HR MAX TEMP:  37; 6HR PCP:  0.41;

MUNISING         N/A     39  38  96 N15       29.58S WCI  31
6HR MIN TEMP:  36; 6HR MAX TEMP:  39; 6HR PCP:  0.25;

$$
MIZ004>006-011>014-085-180700-
CENTRAL UPPER MICHIGAN

CITY           SKY/WX    TMP DP  RH WIND       PRES   REMARKS
MANISTIQUE     CLOUDY    36  31  83 N3        29.56F
6HR MIN TEMP:  36; 6HR MAX TEMP:  40; 6HR PCP:  0.22;

ESCANABA       CLOUDY    36  36 100 NW5       29.59R FOG     WCI  32
6HR MIN TEMP:  36; 6HR MAX TEMP:  40; 6HR PCP:  0.09;

MENOMINEE      CLOUDY    36  35  96 NW5       29.59F FOG     WCI  32
6HR MIN TEMP:  36; 6HR MAX TEMP:  39; 6HR PCP:  0.23;

SAWYER-GWINN   CLOUDY    32  32  99 N8        29.59R WCI  25
$$
MIZ001>003-009>011-084-180700-
WESTERN UPPER MICHIGAN

CITY           SKY/WX    TMP DP  RH WIND       PRES   REMARKS
IRON MOUNTAIN  CLOUDY    33  30  88 NW8       29.57F FOG     WCI  26
6HR MIN TEMP:  32; 6HR MAX TEMP:  35; 6HR PCP:  0.10;

HOUGHTON       CLOUDY    34  31  88 W3        29.61R FOG
6HR MIN TEMP:  33; 6HR MAX TEMP:  34; 6HR PCP:  0.02;

COPPER HARBOR    N/A     39  35  86 N8        29.61R WCI  33
6HR MIN TEMP:  33; 6HR MAX TEMP:  39; 6HR PCP:  0.04;

IRONWOOD       FOG      N/A N/A N/A CALM      29.62F VSB 1/2
                                      6HR PCP:  0.01;

$$

ABBREVIATIONS USED IN REMARKS
   TC - TEMPERATURE IN CELSIUS
  WCI - WIND CHILL INDEX
   HX - HEAT INDEX
  VSB - VISIBILITY





USA.gov is the U.S. government's official web portal to all federal, state and local government web resources and services.